Pittsburg, KS

12:15 AM CDT on May 28, 2018 (GMT -0500)
Atkinson Municipal

Weather History for KPTS - May, 2014

Change the Weather History Date:

Friday, May 16, 2014

  Actual Average (KJLN) Record (KJLN)
Temperature  
Mean Temperature 48 °F -  
Max Temperature 61 °F 78 °F 89 °F (1971)
Min Temperature 36 °F 56 °F 35 °F (2014)
Degree Days  
Heating Degree Days 16    
Moisture  
Dew Point 39 °F    
Average Humidity 64    
Maximum Humidity 100    
Minimum Humidity 32    
Precipitation  
Precipitation 0.02 in - - ()
Sea Level Pressure  
Sea Level Pressure 30.11 in    
Wind  
Wind Speed 2 mph (NE)    
Max Wind Speed 9 mph    
Max Gust Speed 20 mph    
Visibility 10 miles    
Events      
Averages and records for this station are not official NWS values.
T = Trace of Precipitation, MM = Missing Value Source: NWS Daily Summary

Daily Weather History Graph

Daily Weather History Graph

Search for Another Location

Airport or City:

Astronomy

May. 16, 2014 Rise Set
Actual Time 6:09 AM CDT 8:22 PM CDT
Civil Twilight 5:39 AM CDT 8:51 PM CDT
Nautical Twilight 5:03 AM CDT 9:27 PM CDT
Astronomical Twilight 4:24 AM CDT 10:06 PM CDT
Moon 10:29 PM CDT (5/16) 7:51 AM CDT (5/16)
Length of Visible Light 15h 11m
Length of Day
14h 13m
Waning Gibbous, 95% of the Moon is Illuminated
May 16
Waning Gibbous
May 21
Last Quarter
May 28
New
Jun 5
First Quarter
Jun 12
Full

Hourly Weather History & Observations

Time (CDT) Temp. Dew Point Humidity Pressure Visibility Wind Dir Wind Speed Gust Speed Precip Events Conditions
12:15 AM 43.0 °F 39.7 °F 88% 30.13 in 10.0 mi Calm Calm - N/A   Unknown
12:35 AM 43.3 °F 41.4 °F 93% 30.12 in 10.0 mi Calm Calm - N/A   Unknown
1:15 AM 43.5 °F 41.7 °F 93% 30.13 in 10.0 mi Calm Calm - N/A   Unknown
1:35 AM 43.7 °F 40.6 °F 89% 30.12 in 10.0 mi Calm Calm - N/A   Unknown
1:55 AM 43.0 °F 41.4 °F 94% 30.12 in 10.0 mi Calm Calm - N/A   Unknown
2:15 AM 41.9 °F 41.9 °F 100% 30.12 in 10.0 mi Calm Calm - N/A   Unknown
2:55 AM 40.5 °F - N/A% 30.11 in 10.0 mi Calm Calm - N/A   Unknown
3:15 AM 40.5 °F - N/A% 30.11 in 10.0 mi Calm Calm - N/A   Unknown
3:35 AM 39.9 °F - N/A% 30.11 in 10.0 mi Calm Calm - N/A   Unknown
3:55 AM 39.2 °F - N/A% 30.12 in 10.0 mi Calm Calm - N/A   Unknown
4:15 AM 38.1 °F - N/A% 30.12 in 10.0 mi Calm Calm - N/A   Unknown
4:35 AM 37.9 °F - N/A% 30.11 in 10.0 mi Calm Calm - N/A   Unknown
4:55 AM 37.9 °F - N/A% 30.11 in 10.0 mi Calm Calm - N/A   Unknown
5:15 AM 37.6 °F - N/A% 30.11 in 10.0 mi Calm Calm - N/A   Unknown
5:35 AM 36.7 °F - N/A% 30.11 in 10.0 mi Calm Calm - N/A   Unknown
5:55 AM 36.7 °F - N/A% 30.11 in 10.0 mi Calm Calm - N/A   Unknown
6:15 AM 36.3 °F - N/A% 30.11 in 10.0 mi Calm Calm - N/A   Unknown
6:35 AM 36.7 °F - N/A% 30.12 in 10.0 mi Calm Calm - N/A   Unknown
6:55 AM 37.9 °F - N/A% 30.12 in 10.0 mi Calm Calm - N/A   Unknown
7:15 AM 39.0 °F 39.4 °F 100% 30.12 in 10.0 mi Calm Calm - N/A   Unknown
7:35 AM 42.1 °F 41.2 °F 97% 30.12 in 10.0 mi Calm Calm - N/A   Unknown
7:55 AM 46.0 °F 41.7 °F 85% 30.12 in 10.0 mi Calm Calm - N/A   Unknown
8:15 AM 50.4 °F 40.5 °F 69% 30.12 in 10.0 mi Calm Calm - N/A   Unknown
8:35 AM 50.9 °F 38.3 °F 62% 30.12 in 10.0 mi Calm Calm - N/A   Unknown
8:55 AM 52.2 °F 36.5 °F 55% 30.13 in 10.0 mi East 3.5 mph - N/A   Unknown
9:15 AM 55.0 °F 35.6 °F 48% 30.13 in 10.0 mi East 3.5 mph - N/A   Unknown
9:35 AM 55.8 °F 33.4 °F 43% 30.13 in 10.0 mi East 3.5 mph - N/A   Unknown
9:55 AM 55.9 °F 32.4 °F 41% 30.12 in 10.0 mi NE 4.6 mph - N/A   Unknown
10:15 AM 57.7 °F 30.9 °F 36% 30.13 in 10.0 mi NE 5.8 mph - N/A   Unknown
10:35 AM 58.3 °F 30.2 °F 34% 30.12 in 10.0 mi NNE 6.9 mph - N/A   Unknown
10:55 AM 58.5 °F 29.7 °F 33% 30.12 in 10.0 mi NE 9.2 mph - N/A   Unknown
11:15 AM 58.3 °F 30.7 °F 35% 30.12 in 10.0 mi North 5.8 mph - N/A   Unknown
11:35 AM 58.3 °F 30.0 °F 34% 30.12 in 10.0 mi NNE 4.6 mph - N/A   Unknown
11:55 AM 58.5 °F 30.6 °F 35% 30.11 in 10.0 mi Calm Calm - N/A   Unknown
12:15 PM 60.3 °F 31.5 °F 34% 30.11 in 10.0 mi Calm Calm - N/A   Unknown
12:35 PM 60.8 °F 30.7 °F 32% 30.10 in 10.0 mi Calm Calm - N/A   Unknown
12:55 PM 60.8 °F 30.9 °F 32% 30.10 in 10.0 mi Calm Calm - N/A   Unknown
1:15 PM 61.2 °F 31.3 °F 32% 30.09 in 10.0 mi Calm Calm - N/A   Unknown
1:35 PM 60.8 °F 31.1 °F 33% 30.10 in 10.0 mi WNW 9.2 mph - N/A   Unknown
1:55 PM 60.8 °F 31.8 °F 34% 30.10 in 10.0 mi Calm Calm - N/A   Unknown
2:15 PM 60.3 °F 31.8 °F 34% 30.10 in 10.0 mi NNW 5.8 mph - N/A   Unknown
2:35 PM 59.0 °F 31.3 °F 35% 30.09 in 10.0 mi Calm Calm - N/A   Unknown
2:55 PM 59.0 °F 32.0 °F 36% 30.09 in 10.0 mi West 5.8 mph - N/A   Unknown
3:15 PM 58.3 °F 34.0 °F 40% 30.09 in 10.0 mi WSW 9.2 mph 19.6 mph N/A   Unknown
3:35 PM 56.5 °F 36.9 °F 48% 30.11 in 10.0 mi West 9.2 mph - N/A   Unknown
3:55 PM 55.8 °F 41.9 °F 60% 30.11 in 10.0 mi West 5.8 mph - N/A   Unknown
4:15 PM 55.4 °F 44.8 °F 67% 30.10 in 7.0 mi West 3.5 mph - N/A   Unknown
4:35 PM 54.5 °F 43.7 °F 67% 30.09 in 10.0 mi North 3.5 mph - N/A   Unknown
4:55 PM 54.9 °F 44.6 °F 68% 30.08 in 10.0 mi NE 3.5 mph - N/A   Unknown
5:15 PM 53.2 °F 45.0 °F 73% 30.07 in 10.0 mi NE 8.1 mph - N/A   Unknown
5:35 PM 53.2 °F 43.5 °F 70% 30.07 in 10.0 mi ENE 8.1 mph - N/A   Unknown
5:55 PM 53.2 °F 43.3 °F 69% 30.07 in 10.0 mi NE 5.8 mph - N/A   Unknown
6:15 PM 53.2 °F 42.6 °F 67% 30.07 in 10.0 mi NE 6.9 mph - N/A   Unknown
6:35 PM 53.2 °F 42.3 °F 66% 30.07 in 10.0 mi ENE 5.8 mph - N/A   Unknown
6:55 PM 52.7 °F 42.1 °F 67% 30.07 in 10.0 mi ENE 5.8 mph - N/A   Unknown
7:15 PM 51.6 °F 41.5 °F 68% 30.08 in 10.0 mi ENE 3.5 mph - N/A   Unknown
7:35 PM 50.9 °F 41.9 °F 71% 30.09 in 10.0 mi NNE 3.5 mph - N/A   Unknown
7:55 PM 50.9 °F 43.3 °F 75% 30.10 in 10.0 mi NNE 4.6 mph - N/A   Unknown
8:15 PM 50.9 °F 44.6 °F 79% 30.11 in 10.0 mi Calm Calm - N/A   Unknown
8:35 PM 50.9 °F 45.9 °F 83% 30.11 in 10.0 mi NNE 3.5 mph - N/A   Unknown
8:55 PM 50.9 °F 46.9 °F 86% 30.13 in 10.0 mi Calm Calm - N/A   Unknown
9:15 PM 50.9 °F 45.3 °F 81% 30.12 in 10.0 mi NE 5.8 mph - N/A   Unknown
9:35 PM 50.9 °F 44.1 °F 77% 30.12 in 10.0 mi ENE 4.6 mph - N/A   Unknown
9:55 PM 50.9 °F 43.3 °F 75% 30.14 in 10.0 mi East 5.8 mph - N/A   Unknown
10:15 PM 50.9 °F 43.0 °F 74% 30.15 in 10.0 mi East 5.8 mph - 0.01 in   Unknown
10:35 PM 50.5 °F 44.2 °F 79% 30.16 in 10.0 mi ENE 6.9 mph - 0.01 in   Unknown
10:55 PM 48.4 °F 45.1 °F 89% 30.15 in 10.0 mi ENE 5.8 mph - 0.02 in   Unknown
11:15 PM 48.2 °F 46.8 °F 95% 30.14 in 10.0 mi ENE 5.8 mph - N/A   Unknown
11:35 PM 48.2 °F 48.0 °F 99% 30.14 in 10.0 mi East 6.9 mph - N/A   Unknown
11:55 PM 48.2 °F 47.5 °F 97% 30.14 in 10.0 mi ESE 3.5 mph - N/A   Unknown